Погода в Роговатом

Россия / Белгородская область     51°13′26″N   38°22′12″E
темп.,
°C
ветер,
м/с
пор.,
м/с
влажн.,
%
обл.,
%
осадки,
мм/ч
давл.,
гПа
погр.,
м
19 июня, сб
сб1900:00+17всв513840 0.0 1024302
03:00+15в410900 0.0 1024183
06:00+17в410870 0.0 1025252
09:00+21в68720 0.0 1025525
12:00+23в67620 0.0 1024983
15:00+23в67570 0.0 10241063
18:00+23в57690 0.0 1023770
21:00+17всв48860 0.0 1023141
20 июня, вс
вс2000:00+16в48860 0.0 1023132
03:00+14в49880 0.0 1023147
06:00+15в410855 0.0 1023238
09:00+20в576989 0.0 1023478
12:00+24в6758100 0.0 1022923
15:00+25в5762100 0.0 10211014
18:00+23в4970100 0.0 1020499
21:00+19всв4118372 0.0 1020204
21 июня, пн
пн2100:00+18всв4128499 0.0 1019192
03:00+18в61474100 0.0 1019266
06:00+18в51179100 0.0 1019228
09:00+22вюв5768100 0.0 1019341
12:00+25в5106457 0.0 1019607
15:00+28вюв6115974 0.0 10181035
18:00+26вюв6116723 0.0 1018505
21:00+22в4118111 0.0 1018184
22 июня, вт
вт2200:00+21в5147440 0.0 1018285
03:00+20в5147314 0.0 1019277
06:00+20в51379100 0.0 1019279
09:00+24вюв6117010 0.0 1019411
12:00+28вюв6859100 0.0 1019803
15:00+30вюв585986 0.0 10191383
18:00+28в37701 0.0 1018339
21:00+24всв512775 0.0 1019288
23 июня, ср
ср2300:00+22в513805 0.0 1019218
03:00+21всв514742 0.0 1019251
06:00+20в5128016 0.0 1019227
09:00+25в56655 0.0 1019312
12:00+29вюв56525 0.0 1019684
15:00+30вюв56505 0.0 1019903
18:00+29в48645 0.0 1019343
21:00+24в488198 0.0 1019132